When you browse on this site, cookies collect data to enhance your experience and personalize the content and advertising you see.
Visit our Privacy Policy to learn more. By continuing to use the site, you agree to this use of cookies and data.
  • In United Kingdom
  • List of Countries
  • For 7 days
  • Water Temperature
  • Weather Map
  • Weather Widgets
  • user-avatar
    Login

    Hourly Weather Gümüşhacıköy

    Today, 14 December, Saturday

    Time Temperature Precipitation Wind Pressure Humidity
    00:00 +7°C° 0.9 mm 3 mps 683 mmHg 81%
    01:00 +5°C° 0.9 mm 3 mps 683 mmHg 84%
    02:00 +6°C° 0 mm 2 mps 684 mmHg 87%
    03:00 +6°C° 0 mm 2 mps 683 mmHg 86%
    04:00 +6°C° 0 mm 2 mps 683 mmHg 86%
    05:00 +5°C° 0 mm 2 mps 683 mmHg 85%
    06:00 +6°C° 0 mm 2 mps 683 mmHg 83%
    07:00 +5°C° 0 mm 3 mps 684 mmHg 82%
    08:00 +7°C° 0 mm 2 mps 684 mmHg 79%
    09:00 +7°C° 0 mm 3 mps 684 mmHg 77%
    10:00 +7°C° 0 mm 4 mps 684 mmHg 75%
    11:00 +8°C° 0 mm 4 mps 684 mmHg 73%
    12:00 +8°C° 0 mm 4 mps 684 mmHg 71%
    13:00 +10°C° 0 mm 3 mps 684 mmHg 70%
    14:00 +10°C° 0 mm 3 mps 684 mmHg 68%
    15:00 +10°C° 0 mm 3 mps 684 mmHg 70%
    16:00 +9°C° 0 mm 2 mps 684 mmHg 72%
    17:00 +8°C° 0 mm 2 mps 684 mmHg 74%
    18:00 +8°C° 0 mm 2 mps 685 mmHg 76%
    19:00 +8°C° 0 mm 2 mps 685 mmHg 77%
    20:00 +7°C° 0 mm 2 mps 685 mmHg 78%
    21:00 +7°C° 0 mm 2 mps 686 mmHg 79%
    22:00 +7°C° 0 mm 1 mps 686 mmHg 81%
    23:00 +7°C° 0 mm 1 mps 686 mmHg 82%

    Tomorrow, 15 December, Sunday

    Time Temperature Precipitation Wind Pressure Humidity
    00:00 +7°C° 0 mm 1 mps 686 mmHg 82%
    01:00 +7°C° 0 mm 1 mps 687 mmHg 82%
    02:00 +7°C° 0 mm 1 mps 687 mmHg 82%
    03:00 +6°C° 0 mm 1 mps 687 mmHg 83%
    04:00 +6°C° 0 mm 1 mps 687 mmHg 83%
    05:00 +6°C° 0 mm 1 mps 687 mmHg 84%
    06:00 +6°C° 0 mm 1 mps 688 mmHg 83%
    07:00 +6°C° 0 mm 1 mps 688 mmHg 83%
    08:00 +7°C° 0 mm 1 mps 689 mmHg 82%
    09:00 +8°C° 0 mm 1 mps 689 mmHg 76%
    10:00 +10°C° 0 mm 1 mps 690 mmHg 70%
    11:00 +10°C° 0 mm 2 mps 690 mmHg 64%
    12:00 +12°C° 0 mm 1 mps 690 mmHg 63%
    13:00 +12°C° 0 mm 1 mps 691 mmHg 61%
    14:00 +12°C° 0 mm 1 mps 691 mmHg 60%
    15:00 +11°C° 0 mm 1 mps 691 mmHg 65%
    16:00 +10°C° 0 mm 1 mps 691 mmHg 70%
    17:00 +9°C° 0 mm 1 mps 692 mmHg 76%
    18:00 +9°C° 0.2 mm 1 mps 692 mmHg 78%
    19:00 +9°C° 0.2 mm 1 mps 693 mmHg 80%
    20:00 +9°C° 0.2 mm 1 mps 693 mmHg 82%
    21:00 +8°C° 0.7 mm 1 mps 693 mmHg 84%
    22:00 +8°C° 0.7 mm 1 mps 694 mmHg 87%
    23:00 +7°C° 0.7 mm 0 mps 694 mmHg 89%

    Day after tomorrow, 16 December, Monday

    Time Temperature Precipitation Wind Pressure Humidity
    00:00 +7°C° 0.1 mm 0 mps 694 mmHg 90%
    01:00 +6°C° 0.1 mm 0 mps 694 mmHg 90%
    02:00 +6°C° 0.1 mm 0 mps 695 mmHg 91%
    03:00 +5°C° 0 mm 0 mps 695 mmHg 91%
    04:00 +6°C° 0 mm 1 mps 695 mmHg 91%
    05:00 +6°C° 0 mm 1 mps 695 mmHg 91%
    06:00 +6°C° 0 mm 1 mps 696 mmHg 90%
    07:00 +5°C° 0 mm 0 mps 696 mmHg 90%
    08:00 +5°C° 0 mm 0 mps 697 mmHg 89%
    09:00 +6°C° 0 mm 0 mps 697 mmHg 81%
    10:00 +7°C° 0 mm 0 mps 697 mmHg 72%
    11:00 +9°C° 0 mm 0 mps 697 mmHg 64%
    12:00 +9°C° 0 mm 0 mps 697 mmHg 60%
    13:00 +10°C° 0 mm 1 mps 697 mmHg 55%
    14:00 +11°C° 0 mm 1 mps 696 mmHg 50%
    15:00 +10°C° 0 mm 1 mps 696 mmHg 56%
    16:00 +7°C° 0 mm 0 mps 696 mmHg 61%
    17:00 +6°C° 0 mm 0 mps 696 mmHg 67%
    18:00 +6°C° 0 mm 0 mps 696 mmHg 67%
    19:00 +5°C° 0 mm 0 mps 697 mmHg 67%
    20:00 +5°C° 0 mm 0 mps 697 mmHg 67%
    21:00 +5°C° 0 mm 0 mps 697 mmHg 66%
    22:00 +4°C° 0 mm 0 mps 697 mmHg 65%
    23:00 +4°C° 0 mm 0 mps 697 mmHg 64%

    17 December, Tuesday

    Time Temperature Precipitation Wind Pressure Humidity
    00:00 +4°C° 0 mm 0 mps 696 mmHg 63%
    01:00 +4°C° 0 mm 0 mps 696 mmHg 63%
    02:00 +3°C° 0 mm 0 mps 696 mmHg 62%
    03:00 +3°C° 0 mm 0 mps 696 mmHg 62%
    04:00 +3°C° 0 mm 0 mps 696 mmHg 61%
    05:00 +3°C° 0 mm 0 mps 696 mmHg 61%
    06:00 +3°C° 0 mm 0 mps 696 mmHg 60%
    07:00 +4°C° 0 mm 0 mps 696 mmHg 59%
    08:00 +4°C° 0 mm 0 mps 697 mmHg 58%
    09:00 +6°C° 0 mm 0 mps 697 mmHg 54%
    10:00 +7°C° 0 mm 0 mps 697 mmHg 49%
    11:00 +10°C° 0 mm 1 mps 697 mmHg 44%
    12:00 +10°C° 0 mm 1 mps 697 mmHg 43%
    13:00 +11°C° 0 mm 1 mps 696 mmHg 42%
    14:00 +12°C° 0 mm 1 mps 696 mmHg 41%
    15:00 +10°C° 0 mm 1 mps 696 mmHg 46%
    16:00 +8°C° 0 mm 0 mps 696 mmHg 51%
    17:00 +6°C° 0 mm 0 mps 696 mmHg 55%
    18:00 +6°C° 0 mm 0 mps 696 mmHg 56%
    19:00 +7°C° 0 mm 1 mps 696 mmHg 56%
    20:00 +7°C° 0 mm 1 mps 696 mmHg 56%
    21:00 +6°C° 0 mm 1 mps 696 mmHg 56%
    22:00 +6°C° 0 mm 1 mps 696 mmHg 56%
    23:00 +6°C° 0 mm 1 mps 696 mmHg 57%

    18 December, Wednesday

    Time Temperature Precipitation Wind Pressure Humidity
    00:00 +6°C° 0 mm 1 mps 696 mmHg 57%
    01:00 +6°C° 0 mm 1 mps 696 mmHg 57%
    02:00 +5°C° 0 mm 1 mps 696 mmHg 57%
    03:00 +5°C° 0 mm 1 mps 696 mmHg 58%
    04:00 +5°C° 0 mm 1 mps 696 mmHg 58%
    05:00 +5°C° 0 mm 1 mps 696 mmHg 58%
    06:00 +5°C° 0 mm 1 mps 697 mmHg 58%
    07:00 +5°C° 0 mm 1 mps 697 mmHg 58%
    08:00 +6°C° 0 mm 1 mps 697 mmHg 57%
    09:00 +7°C° 0 mm 1 mps 697 mmHg 52%
    10:00 +9°C° 0 mm 1 mps 698 mmHg 48%
    11:00 +11°C° 0 mm 1 mps 698 mmHg 43%
    12:00 +12°C° 0 mm 1 mps 697 mmHg 42%
    13:00 +12°C° 0 mm 1 mps 697 mmHg 41%
    14:00 +13°C° 0 mm 1 mps 697 mmHg 40%
    15:00 +11°C° 0 mm 1 mps 697 mmHg 44%
    16:00 +10°C° 0 mm 1 mps 697 mmHg 48%
    17:00 +8°C° 0 mm 1 mps 697 mmHg 53%
    18:00 +8°C° 0 mm 1 mps 697 mmHg 52%
    19:00 +8°C° 0 mm 1 mps 697 mmHg 52%
    20:00 +8°C° 0 mm 1 mps 697 mmHg 51%
    21:00 +7°C° 0 mm 1 mps 697 mmHg 51%
    22:00 +7°C° 0 mm 1 mps 697 mmHg 51%
    23:00 +7°C° 0 mm 1 mps 697 mmHg 51%

    19 December, Thursday

    Time Temperature Precipitation Wind Pressure Humidity
    00:00 +7°C° 0 mm 1 mps 697 mmHg 51%
    01:00 +6°C° 0 mm 1 mps 697 mmHg 52%
    02:00 +6°C° 0 mm 1 mps 696 mmHg 52%
    03:00 +6°C° 0 mm 1 mps 696 mmHg 52%
    04:00 +6°C° 0 mm 1 mps 696 mmHg 53%
    05:00 +6°C° 0 mm 1 mps 696 mmHg 53%
    06:00 +6°C° 0 mm 1 mps 696 mmHg 53%
    07:00 +6°C° 0 mm 1 mps 696 mmHg 52%
    08:00 +6°C° 0 mm 1 mps 696 mmHg 52%
    09:00 +8°C° 0 mm 1 mps 696 mmHg 47%
    10:00 +10°C° 0 mm 1 mps 696 mmHg 43%
    11:00 +12°C° 0 mm 1 mps 697 mmHg 38%
    12:00 +12°C° 0 mm 1 mps 696 mmHg 37%
    13:00 +13°C° 0 mm 1 mps 696 mmHg 36%
    14:00 +14°C° 0 mm 1 mps 695 mmHg 35%
    15:00 +12°C° 0 mm 1 mps 695 mmHg 39%
    16:00 +11°C° 0 mm 1 mps 695 mmHg 43%
    17:00 +9°C° 0 mm 1 mps 694 mmHg 48%
    18:00 +9°C° 0 mm 1 mps 694 mmHg 48%
    19:00 +8°C° 0 mm 1 mps 694 mmHg 49%
    20:00 +8°C° 0 mm 1 mps 694 mmHg 49%
    21:00 +8°C° 0 mm 1 mps 694 mmHg 50%
    22:00 +7°C° 0 mm 1 mps 694 mmHg 50%
    23:00 +6°C° 0 mm 2 mps 694 mmHg 51%
    Show more